Location: Sobotiste
(48.7170°N, 17.4000°E)
Time: 04:18:11
(UTC+02:00)

AO-73 - Pass Details

Date: 20 March 2026
Orbit: 514 x 567 km, 97.8° (Epoch: 12 April)

Event Time Altitude Azimuth Distance (km) Brightness Sun altitude
Rises 02:56:04 0° 24° (NNE) 2,657 ? -28.2°
Reaches altitude 10° 02:58:28 10° 38° (NE) 1,757 ? -27.9°
Maximum altitude 03:01:38 25° 95° (E) 1,070 ? -27.5°
Enters shadow 03:02:01 25° 105° (ESE) 1,081 ? -27.5°
